TimeEDT,TemperatureF,Dew PointF,Humidity,Sea Level PressureIn,VisibilityMPH,Wind Direction,Wind SpeedMPH,Gust SpeedMPH,PrecipitationIn,Events,Conditions,WindDirDegrees,DateUTC
12:52 AM,52.0,44.1,74,30.12,10.0,North,4.6,-,N/A,,Overcast,360,2012-10-10 04:52:00
1:52 AM,52.0,44.1,74,30.11,10.0,NNE,6.9,-,N/A,,Overcast,30,2012-10-10 05:52:00
2:52 AM,52.0,45.0,77,30.09,10.0,NNE,5.8,-,N/A,,Overcast,20,2012-10-10 06:52:00
3:05 AM,51.8,44.6,76,30.09,10.0,NNE,4.6,-,N/A,,Overcast,30,2012-10-10 07:05:00
3:52 AM,52.0,45.0,77,30.07,10.0,NE,8.1,-,N/A,,Overcast,40,2012-10-10 07:52:00
4:33 AM,51.8,46.4,82,30.07,10.0,NE,3.5,-,N/A,,Overcast,40,2012-10-10 08:33:00
4:52 AM,52.0,46.9,83,30.06,10.0,NNE,6.9,-,N/A,,Overcast,30,2012-10-10 08:52:00
5:52 AM,52.0,48.0,86,30.05,10.0,North,3.5,-,0.00,,Overcast,360,2012-10-10 09:52:00
6:52 AM,52.0,48.9,89,30.04,9.0,Calm,Calm,-,0.01,,Overcast,0,2012-10-10 10:52:00
7:52 AM,53.1,48.9,86,30.03,6.0,Calm,Calm,-,0.01,Rain,Light Rain,0,2012-10-10 11:52:00
8:52 AM,54.0,51.1,90,30.01,6.0,NNE,3.5,-,0.00,Rain,Light Rain,30,2012-10-10 12:52:00
10:03 AM,55.4,51.8,88,29.97,3.0,ENE,6.9,-,0.01,Rain,Light Rain,70,2012-10-10 14:03:00
10:52 AM,57.0,53.1,87,29.94,10.0,East,3.5,-,0.01,,Overcast,80,2012-10-10 14:52:00
12:06 PM,59.0,55.4,88,29.90,1.8,Calm,Calm,-,0.00,Rain,Light Rain,0,2012-10-10 16:06:00
12:52 PM,60.1,55.9,86,29.87,1.5,Calm,Calm,-,0.07,Rain,Rain,0,2012-10-10 16:52:00
12:57 PM,60.8,55.4,82,29.87,2.0,Calm,Calm,-,0.00,Rain,Light Rain,0,2012-10-10 16:57:00
1:02 PM,60.8,55.4,82,29.87,3.0,Calm,Calm,-,0.00,Rain,Light Rain,0,2012-10-10 17:02:00
1:12 PM,60.8,57.2,88,29.85,2.5,ENE,3.5,-,0.00,Rain,Light Rain,70,2012-10-10 17:12:00
1:16 PM,60.8,57.2,88,29.85,3.0,Calm,Calm,-,0.00,Rain,Light Rain,0,2012-10-10 17:16:00
1:20 PM,60.8,57.2,88,29.85,2.5,Calm,Calm,-,0.01,Rain,Rain,0,2012-10-10 17:20:00
1:24 PM,60.8,57.2,88,29.85,1.8,Calm,Calm,-,0.02,Rain,Rain,0,2012-10-10 17:24:00
1:29 PM,60.8,57.2,88,29.84,2.0,Calm,Calm,-,0.02,Rain,Light Rain,0,2012-10-10 17:29:00
1:39 PM,60.8,57.2,88,29.83,3.0,Calm,Calm,-,0.03,Rain,Light Rain,0,2012-10-10 17:39:00
1:52 PM,61.0,57.0,87,29.82,6.0,Calm,Calm,-,0.03,Rain,Light Rain,0,2012-10-10 17:52:00
2:11 PM,60.8,57.2,88,29.82,2.0,Calm,Calm,-,0.00,Rain,Light Rain,0,2012-10-10 18:11:00
2:24 PM,60.8,57.2,88,29.82,1.2,SSW,4.6,-,0.03,Rain,Rain,210,2012-10-10 18:24:00
2:34 PM,60.8,57.2,88,29.81,1.2,Calm,Calm,-,0.06,Rain,Rain,0,2012-10-10 18:34:00
2:41 PM,60.8,59.0,94,29.81,2.0,Calm,Calm,-,0.07,Rain,Light Rain,0,2012-10-10 18:41:00
2:52 PM,63.0,60.1,90,29.79,4.0,Calm,Calm,-,0.07,Rain,Light Rain,0,2012-10-10 18:52:00
3:42 PM,62.6,59.0,88,29.78,10.0,Calm,Calm,-,0.00,,Overcast,0,2012-10-10 19:42:00
3:49 PM,64.4,60.8,88,29.77,10.0,Calm,Calm,-,0.00,,Overcast,0,2012-10-10 19:49:00
3:52 PM,64.9,60.1,84,29.77,10.0,Calm,Calm,-,0.00,,Mostly Cloudy,0,2012-10-10 19:52:00
4:52 PM,66.0,59.0,78,29.75,10.0,SW,3.5,-,N/A,,Scattered Clouds,220,2012-10-10 20:52:00
5:52 PM,63.0,55.0,75,29.76,10.0,WSW,4.6,-,N/A,,Partly Cloudy,250,2012-10-10 21:52:00
6:52 PM,60.1,54.0,80,29.77,10.0,Calm,Calm,-,N/A,,Scattered Clouds,0,2012-10-10 22:52:00
7:52 PM,57.9,52.0,81,29.78,10.0,Calm,Calm,-,N/A,,Mostly Cloudy,0,2012-10-10 23:52:00
8:52 PM,55.0,52.0,89,29.80,10.0,Calm,Calm,-,N/A,,Clear,0,2012-10-11 00:52:00
9:52 PM,55.0,51.1,86,29.81,10.0,SW,3.5,-,N/A,,Mostly Cloudy,230,2012-10-11 01:52:00
10:52 PM,55.0,43.0,64,29.86,10.0,NW,18.4,28.8,N/A,,Mostly Cloudy,310,2012-10-11 02:52:00
11:52 PM,51.1,39.0,63,29.88,10.0,WNW,5.8,-,N/A,,Clear,300,2012-10-11 03:52:00